Starlink 31619

operational
NORAD ID: 59531 Int'l Des: 2024-073 Owner: SPXS Country: US Constellation: starlink
LEOCIRCULAR

About Starlink 31619

Description loading...

Live Position

Loading 3D Globe...

Upcoming Passes

Altitude History

Altitude vs Time

uPlot chart will show altitude changes over time

Two-Line Element Set

1 59531U 24073W 26034.40359947 .00000042 00000-0 11038-4 0 9998
2 59531 42.9980 151.5052 0001175 274.6336 85.4382 15.27576306102051
Epoch: Feb 3, 2026 • Age: 24 hours

Current Status

Altitude 486.0 km
Velocity 7.63 km/s
Sub-Earth Point 39.06°N, 71.5°W
Launch Date Apr 17, 2024
Age 1.7 years
Type internet

Technical Details

Classification Payload
Mass 730.00 kg
Dry Mass 700.00 kg
Total Mass 730.00 kg
Length 0.30 m
Diameter 4.10 m
Span 29.00 m
Shape Box + pan
Manufacturer SPXS
Bus Type Starlink V2M
Phase Status In Orbit
Owner/State SPXS/US

Large Constellations

Loading constellations...